Location: Krasnoyarskiy Pitomnik
(51.1333°N, 71.6167°E)
Time: 09:40:38
(UTC+00:00)

ISS - Pass Details

Date: 04 March 2024
Orbit: 413 x 419 km, 51.6° (Epoch: 13 April)

Event Time Altitude Azimuth Distance (km) Brightness Sun altitude
Exits shadow 23:41:43 42° 157° (SSE) 620 -2.9 -20.6°
Drops below altitude 10° 23:44:18 10° 125° (SE) 1,516 -0.4 -20.3°
Sets 23:46:26 0° 121° (ESE) 2,378 0.7 -19.9°
